FW2027 Weather Reports


Display with metric or nautical units.
time (UTC)temp
F
wind
direction
speed
MPH
gust
MPH
rain 1hr
in
rain 24hr
in
rain mn
in
humidity
%
barometer
mb
20260906223053 65 187 1.0 5.0 0.00 0.02 0.02 85 1013.7
20260906221552 66 195 3.0 6.0 0.00 0.02 0.02 84 1013.6
20260906220053 66 175 3.0 8.0 0.00 0.02 0.02 83 1013.7
20260906214552 66 182 4.0 8.0 0.00 0.02 0.02 81 1013.6
20260906213050 67 186 4.0 10.0 0.00 0.02 0.02 80 1013.6
20260906211549 68 182 8.0 14.0 0.00 0.02 0.02 78 1013.6
20260906210053 68 165 6.0 12.0 0.00 0.02 0.02 77 1013.6
20260906204547 68 173 7.0 14.0 0.00 0.02 0.02 75 1013.7
20260906203047 68 214 4.0 14.0 0.00 0.02 0.02 73 1013.6
20260906201547 67 192 0.0 2.0 0.00 0.02 0.02 73 1013.5
20260906200047 68 189 0.0 3.0 0.00 0.02 0.02 71 1013.4
20260906194545 70 189 1.0 4.0 0.00 0.02 0.02 68 1013.3
20260906193045 71 180 4.0 7.0 0.00 0.02 0.02 66 1013.1
20260906191547 71 174 4.0 9.0 0.00 0.02 0.02 64 1013.3
20260906190044 71 184 4.0 8.0 0.00 0.02 0.02 62 1013.1
20260906184547 72 168 4.0 6.0 0.00 0.02 0.02 60 1013.1
20260906183048 73 192 3.0 8.0 0.00 0.02 0.02 58 1013.1
20260906181548 73 198 5.0 8.0 0.00 0.02 0.02 56 1013.1
20260906180041 74 164 6.0 13.0 0.00 0.02 0.02 55 1013.1
20260906174543 75 218 4.0 7.0 0.00 0.02 0.02 56 1013.1
20260906173038 75 171 7.0 11.0 0.00 0.02 0.02 54 1013.1
20260906171541 76 188 8.0 12.0 0.00 0.02 0.02 53 1013.2
20260906170040 77 153 8.0 16.0 0.00 0.02 0.02 52 1013.2
20260906164539 77 185 7.0 13.0 0.00 0.02 0.02 51 1013.3
20260906163034 77 221 8.0 16.0 0.00 0.02 0.02 51 1013.5
20260906161534 78 178 10.0 17.0 0.00 0.02 0.02 51 1013.7
20260906160032 77 179 6.0 11.0 0.00 0.02 0.02 57 1013.8
20260906154531 76 149 6.0 11.0 0.00 0.02 0.02 56 1014.0
20260906153029 75 174 8.0 16.0 0.00 0.02 0.02 56 1014.2
20260906151526 76 168 6.0 12.0 0.00 0.02 0.02 58 1014.4
20260906150028 77 152 7.0 18.0 0.00 0.02 0.02 55 1014.6
20260906144521 76 144 5.0 9.0 0.00 0.02 0.02 60 1015.2
20260906143017 76 208 5.0 9.0 0.00 0.02 0.02 63 1015.2
20260906141522 74 226 2.0 8.0 0.00 0.02 0.02 70 1015.5
20260906140106 74 216 3.0 6.0 0.00 0.02 0.02 71 1015.5
20260906134602 73 163 4.0 7.0 0.00 0.02 0.02 72 1015.6
20260906133056 72 124 1.0 7.0 0.00 0.02 0.02 74 1016.0
20260906131551 71 137 3.0 11.0 0.00 0.02 0.02 74 1016.3
20260906124548 71 156 2.0 8.0 0.00 0.02 0.02 74 1016.8
20260906123041 69 134 2.0 4.0 0.00 0.02 0.02 79 1017.0
20260906121540 68 190 3.0 7.0 0.00 0.02 0.02 76 1017.0
20260906120039 68 144 2.0 7.0 0.00 0.02 0.02 77 1017.0
20260906114540 68 167 5.0 8.0 0.00 0.02 0.02 77 1017.0
20260906113040 67 203 6.0 11.0 0.00 0.02 0.02 76 1017.4